This is the latest recevied weather packets stored in our database for station/object K5FEP. If no packets are shown the sender has not sent any weather packets the latest 10 day(s).
| Time | Temp. | Humidity | Pressure | Rain* | Wind** | Luminosity | Snow |
|---|---|---|---|---|---|---|---|
| 1788012446 | 24.44° C | 84% | 1021.8 hPa | 0 mm | - | 594 W/m² | - |
| 1788012134 | 25° C | 84% | 1022 hPa | 0 mm | - | 314 W/m² | - |
| 1788011834 | 24.44° C | 85% | 1021.8 hPa | 0 mm | - | 316 W/m² | - |
| 1788011532 | 23.89° C | 87% | 1021.7 hPa | 0 mm | - | 279 W/m² | - |
| 1788011228 | 23.89° C | 88% | 1021.8 hPa | 0 mm | - | 207 W/m² | - |
| 1788010927 | 23.89° C | 88% | 1022 hPa | 0 mm | - | 224 W/m² | - |
| 1788010622 | 23.33° C | 90% | 1021.7 hPa | 0 mm | - | 318 W/m² | - |
| 1788010320 | 23.33° C | 90% | 1021.7 hPa | 0 mm | - | 210 W/m² | - |
| 1788010015 | 22.78° C | 92% | 1021.8 hPa | 0 mm | - | 217 W/m² | - |
| 1788009714 | 22.78° C | 92% | 1022.1 hPa | 0 mm | - | 236 W/m² | - |
| 1788009413 | 22.78° C | 93% | 1022 hPa | 0 mm | - | 148 W/m² | - |
| 1788009108 | 22.78° C | 93% | 1021.8 hPa | 0 mm | - | 123 W/m² | - |
| 1788008804 | 22.22° C | 94% | 1022.1 hPa | 0 mm | - | 121 W/m² | - |
| 1788008503 | 22.22° C | 95% | 1022.1 hPa | 0 mm | - | 130 W/m² | - |
| 1788008200 | 22.22° C | 96% | 1022.2 hPa | 0 mm | - | 125 W/m² | - |
| 1788007899 | 22.22° C | 96% | 1022.2 hPa | 0 mm | - | 113 W/m² | - |
| 1788007598 | 22.22° C | 97% | 1022.3 hPa | 0 mm | - | 116 W/m² | - |
| 1788007298 | 22.22° C | 97% | 1022.1 hPa | 0 mm | - | 111 W/m² | - |
| 1788006993 | 21.67° C | 97% | 1021.8 hPa | 0 mm | - | 101 W/m² | - |
| 1788006693 | 21.67° C | 97% | 1022.1 hPa | 0 mm | - | 97 W/m² | - |
| 1788006388 | 21.67° C | 97% | 1022 hPa | 0 mm | - | 90 W/m² | - |
| 1788006087 | 21.67° C | 97% | 1022.1 hPa | 0 mm | - | 79 W/m² | - |
| 1788005786 | 21.67° C | 97% | 1021.8 hPa | 0 mm | - | 81 W/m² | - |
| 1788005481 | 21.11° C | 97% | 1021.8 hPa | 0 mm | - | 81 W/m² | - |
| 1788005181 | 21.11° C | 97% | 1021.6 hPa | 0 mm | - | 78 W/m² | - |
* Rain latest hour (hover to see other rain measurements)
** Current wind speed in m/s (hover to see current wind gust speed)